Simultaneous Nadir Overpasses (SNOs) Predictions

Prediction of SNOs between AQUA and METOP-B Satellite Orbit:

Table of predicted SNOs for the next 14.0 days since TLE Epoch: 11/21/2020
Index Date (AQUA) Time (AQUA) Lat,Lon (AQUA) SZA (AQUA ) Date (METOP-B) Time (METOP-B) Lat,Lon (METOP-B) SZA (METOP-B ) Distance(km) Time Diff (sec)
1 11/21/2020 05:12:38 -73.62, -83.51 86.46 11/21/2020 05:11:26 -73.58, -84.17 86.49 21.00 72
2 11/21/2020 06:02:10 73.84, 83.65 93.78 11/21/2020 06:02:01 73.82, 83.75 93.77 3.38 9
3 11/21/2020 06:51:36 -73.87,-108.79 86.18 11/21/2020 06:52:42 -73.86,-108.85 86.20 2.77 66
4 11/24/2020 00:46:56 -73.77, -17.40 85.72 11/24/2020 00:45:45 -73.74, -17.39 85.74 3.51 71
5 11/24/2020 01:36:25 73.83, 150.10 94.36 11/24/2020 01:36:23 73.83, 150.17 94.37 2.35 2
6 11/24/2020 02:25:51 -73.87, -42.34 85.60 11/24/2020 02:27:04 -73.86, -42.42 85.60 2.74 73
7 11/26/2020 20:21:12 -73.77, 49.04 85.18 11/26/2020 20:20:08 -73.74, 49.03 85.20 2.78 64
8 11/26/2020 21:10:41 73.83,-143.47 94.90 11/26/2020 21:10:46 73.84,-143.40 94.91 2.28 5
9 11/26/2020 22:00:11 -74.07, 23.63 84.85 11/26/2020 22:01:22 -74.12, 24.60 84.82 29.85 71
10 11/29/2020 15:55:28 -73.77, 115.46 84.68 11/29/2020 15:54:31 -73.74, 115.44 84.70 3.25 57
11 11/29/2020 16:44:57 73.84, -77.05 95.40 11/29/2020 16:45:09 73.84, -76.99 95.40 2.12 12
12 11/29/2020 17:34:32 -74.34, 89.45 84.08 11/29/2020 17:35:40 -74.36, 91.64 84.09 65.60 68
13 12/02/2020 11:29:42 -73.74,-178.03 84.28 12/02/2020 11:28:53 -73.75,-178.14 84.27 3.62 49
14 12/02/2020 12:19:12 73.86, -10.66 95.85 12/02/2020 12:19:31 73.84, -10.58 95.84 2.83 19
